Location: Rowland
(34.5359°N, 79.2929°W)
Time: 12:17:44
(UTC+00:00)

Transit 2A - All Passes

Search period start: 05 October 2022 00:00
Search period end: 15 October 2022 00:00
Orbit: 601 x 956 km, 66.7° (Epoch: 05 October)

Date Brightness Start Highest point End Pass type
(mag) Time Alt. Az. Time Alt. Az. Time Alt. Az.
05 Oct - 02:42:53 10° S 02:47:04 36° ESE 02:51:04 10° NE night (unlit)
05 Oct - 04:27:09 10° W 04:30:13 18° NW 04:33:16 10° N night (unlit)
05 Oct - 11:32:31 10° NNE 11:35:30 16° NE 11:38:37 10° E daylight
05 Oct - 13:14:03 10° NW 13:18:52 58° WSW 13:24:10 10° SSE daylight
06 Oct - 02:09:17 10° SSE 02:12:48 22° ESE 02:16:11 10° ENE night (unlit)
06 Oct - 03:51:52 10° WSW 03:55:43 28° WNW 03:59:28 10° N night (unlit)
06 Oct - 10:59:53 10° NE 11:00:53 11° NE 11:01:54 10° ENE daylight
06 Oct - 12:39:36 10° NNW 12:44:31 90° ENE 12:49:56 10° SSE daylight
07 Oct - 01:36:23 10° SE 01:38:34 13° ESE 01:40:43 10° ENE night (unlit)
07 Oct - 03:16:58 10° SW 03:21:16 44° WNW 03:25:27 10° NNE night (unlit)
07 Oct - 12:05:19 10° NNW 12:10:08 58° ENE 12:15:26 10° SE daylight
07 Oct - 13:50:14 10° WNW 13:52:54 14° WSW 13:55:42 10° SW daylight
08 Oct - 02:42:22 10° SSW 02:46:53 74° WNW 02:51:14 10° NNE night (unlit)
08 Oct - 11:31:11 10° N 11:35:43 38° ENE 11:40:40 10° SE daylight
08 Oct - 13:14:46 10° WNW 13:18:40 23° WSW 13:22:50 10° SSW daylight
09 Oct - 02:08:03 10° SSW 02:12:32 66° ESE 02:16:51 10° NNE night (unlit)
09 Oct - 03:54:49 10° WNW 03:56:01 11° NW 03:57:14 10° NNW night (unlit)
09 Oct - 10:57:13 10° N 11:01:15 25° ENE 11:05:36 10° ESE daylight
09 Oct - 12:39:52 10° NW 12:44:22 35° WSW 12:49:18 10° S daylight
10 Oct - 01:34:01 10° S 01:38:13 39° ESE 01:42:16 10° NE night (unlit)
10 Oct - 03:18:32 10° W 03:21:26 17° NW 03:24:18 10° NNW night (unlit)
10 Oct - 10:23:30 10° NNE 10:26:44 17° NE 10:30:07 10° E visible
10 Oct - 12:05:13 10° NW 12:10:03 55° WSW 12:15:24 10° S daylight
11 Oct - 01:00:22 10° SSE 01:03:57 23° ESE 01:07:26 10° NE night (unlit)
11 Oct - 02:43:10 10° WSW 02:46:54 26° WNW 02:50:34 10° N night (unlit)
11 Oct - 09:50:28 10° NNE 09:52:07 11° NE 09:53:49 10° ENE visible
11 Oct - 11:30:45 10° NNW 11:35:43 85° WSW 11:41:13 10° SSE daylight
12 Oct - 00:27:19 10° SE 00:29:43 14° ESE 00:32:04 10° ENE night (unlit)
12 Oct - 02:08:13 10° SW 02:12:27 41° WNW 02:16:34 10° NNE night (unlit)
12 Oct - 10:56:27 10° NNW 11:01:21 62° ENE 11:06:44 10° SE visible
12 Oct - 12:41:35 10° WNW 12:44:05 14° WSW 12:46:42 10° SW daylight
13 Oct - 01:33:35 10° SSW 01:38:02 69° WNW 01:42:22 10° NNE night (unlit)
13 Oct - 10:22:16 10° N 10:26:55 40° ENE 10:32:01 10° SE visible
13 Oct - 12:06:01 10° WNW 12:09:51 22° WSW 12:13:56 10° SSW daylight
14 Oct - 00:59:13 10° SSW 01:03:41 71° ESE 01:08:00 10° NNE visible
14 Oct - 02:46:43 10° NW 02:47:14 10° NW 02:47:46 10° NW night (unlit)
14 Oct - 09:48:16 10° N 09:52:28 27° ENE 09:56:59 10° ESE visible
14 Oct - 11:31:03 10° NW 11:35:34 33° WSW 11:40:28 10° S daylight
